Location: Unspecified
(0.0000°N, 0.0000°E)
Time: 15:14:35
(UTC+00:00)

S-56A Canister/Altair - All Passes

Search period start: 10 February 2016 00:00
Search period end: 20 February 2016 00:00
Orbit: 639 x 2496 km, 38.9° (Epoch: 08 February)

Date Brightness Start Highest point End Pass type
(mag) Time Alt. Az. Time Alt. Az. Time Alt. Az.
10 Feb - 01:14:40 10° WNW 01:28:39 47° SW 01:39:43 10° SSE visible
10 Feb - 03:33:16 10° SW 03:35:03 10° SW 03:36:46 10° SSW visible
10 Feb - 12:00:35 10° SW 12:05:05 82° NW 12:10:38 10° NE daylight
10 Feb - 14:08:27 10° NW 14:10:00 11° NNW 14:11:39 10° NNW daylight
10 Feb - 20:31:52 10° N 20:40:40 19° NE 20:49:58 10° ENE visible
10 Feb - 22:34:14 10° NW 22:48:45 57° NE 23:02:19 10° ESE visible
11 Feb - 00:41:01 10° WNW 00:55:34 55° SW 01:07:28 10° SSE visible
11 Feb - 02:56:11 10° WSW 03:02:04 14° SW 03:07:16 10° S visible
11 Feb - 11:28:30 10° SW 11:32:58 76° SE 11:38:06 10° NE daylight
11 Feb - 13:35:15 10° NW 13:37:26 12° NNW 13:39:53 10° N daylight
11 Feb - 20:00:01 10° N 20:07:17 16° NNE 20:15:05 10° ENE visible
11 Feb - 22:01:28 10° NNW 22:15:26 51° NE 22:29:10 10° ESE visible
12 Feb - 00:07:31 10° WNW 00:22:25 62° SW 00:35:05 10° SE visible
12 Feb - 02:20:48 10° WSW 02:29:02 18° SW 02:36:08 10° S visible
12 Feb - 10:56:27 10° SW 11:00:50 56° SE 11:05:35 10° ENE daylight
12 Feb - 13:02:19 10° WNW 13:04:59 14° NNW 13:07:59 10° N daylight
12 Feb - 19:28:44 10° N 19:33:56 13° NNE 19:39:30 10° NE visible
12 Feb - 21:28:50 10° NNW 21:42:08 45° NE 21:55:50 10° ESE visible
12 Feb - 23:34:10 10° NW 23:49:13 70° SW 00:02:33 10° SE night (unlit)
13 Feb - 01:45:58 10° W 01:55:58 22° SW 02:04:32 10° S visible
13 Feb - 10:24:25 10° SSW 10:28:43 41° SE 10:33:06 10° ENE daylight
13 Feb - 12:29:33 10° WNW 12:32:35 17° NW 12:36:00 10° N daylight
13 Feb - 18:59:58 10° NNE 19:00:36 10° NNE 19:01:16 10° NE visible
13 Feb - 20:56:19 10° NNW 21:08:50 40° NE 21:22:18 10° ESE visible
13 Feb - 23:00:59 10° NW 23:15:56 78° SW 23:29:54 10° SE visible
14 Feb - 01:11:29 10° W 01:22:50 26° SW 01:32:39 10° SSE visible
14 Feb - 09:52:22 10° SSW 09:56:34 31° SE 10:00:34 10° ENE daylight
14 Feb - 11:56:53 10° W 12:00:16 20° NW 12:04:01 10° NNE daylight
14 Feb - 20:23:58 10° NNW 20:35:35 35° NE 20:48:33 10° E visible
14 Feb - 22:27:57 10° NW 22:42:39 87° SW 22:57:06 10° SE visible
15 Feb - 00:37:18 10° W 00:49:40 31° SW 01:00:34 10° SSE visible
15 Feb - 09:20:21 10° SSW 09:24:21 24° SE 09:28:01 10° E daylight
15 Feb - 11:24:16 10° W 11:28:00 25° NW 11:32:00 10° NNE daylight
15 Feb - 19:51:45 10° NNW 20:02:23 30° NE 20:14:33 10° E visible
15 Feb - 21:55:02 10° NW 22:09:21 85° NE 22:24:10 10° SE visible
16 Feb - 00:03:22 10° W 00:16:27 36° SW 00:28:19 10° SSE visible
16 Feb - 08:48:20 10° S 08:52:04 20° SE 08:55:25 10° E daylight
16 Feb - 10:51:43 10° WSW 10:55:48 33° NW 10:59:59 10° NNE daylight
16 Feb - 19:19:43 10° N 19:29:13 25° NE 19:40:18 10° E visible
16 Feb - 21:22:17 10° NW 21:36:04 77° NE 21:51:05 10° SE visible
16 Feb - 23:29:40 10° WNW 23:43:11 41° SW 23:55:55 10° SSE visible
17 Feb - 01:48:44 10° SW 01:51:27 11° SSW 01:54:04 10° SSW visible
17 Feb - 08:16:20 10° S 08:19:45 16° SSE 08:22:44 10° ESE daylight
17 Feb - 10:19:12 10° WSW 10:23:39 43° NW 10:27:58 10° NNE daylight
17 Feb - 18:47:53 10° N 18:56:06 21° NE 19:05:45 10° E visible
17 Feb - 20:49:39 10° NW 21:02:49 69° NE 21:17:51 10° ESE visible
17 Feb - 22:56:10 10° WNW 23:09:53 46° SW 23:23:22 10° SSE visible
18 Feb - 01:11:56 10° WSW 01:18:06 14° SSW 01:23:52 10° S visible
18 Feb - 07:44:21 10° S 07:47:19 14° SSE 07:49:56 10° ESE daylight
18 Feb - 09:46:41 10° WSW 09:51:32 59° NW 09:55:55 10° NE daylight
18 Feb - 18:16:21 10° N 18:23:03 17° NE 18:30:49 10° ENE daylight
18 Feb - 20:17:10 10° NW 20:29:36 61° NE 20:44:29 10° ESE visible
18 Feb - 22:22:53 10° WNW 22:36:34 52° SW 22:50:42 10° SSE visible
19 Feb - 00:36:33 10° WSW 00:44:44 16° SSW 00:52:24 10° S visible
19 Feb - 07:12:25 10° S 07:14:50 12° SSE 07:17:00 10° SE daylight
19 Feb - 09:14:10 10° SW 09:19:25 80° NW 09:23:52 10° NE daylight
19 Feb - 17:45:24 10° NNE 17:50:03 13° NE 17:55:15 10° ENE daylight
19 Feb - 19:44:48 10° NNW 19:56:29 53° NE 20:10:56 10° ESE visible
19 Feb - 21:49:46 10° WNW 22:03:15 59° SW 22:17:53 10° SE visible
